AFL4563 URWW-UGTB

Flight info

Callsign AFL4563
Flight time 1h 23m
Altitude 38000
Route TONGI2E TONGI R807 NIRGA A835 GUSLI/N0453F390 L125 BT H5 TBS
Aircraft A20N/M-SDE2E3FGHIRWXY/LB1

Departure

Time 2026-04-24 19:29
Airport Volgograd International Airport (URWW)

Arrival

Time 2026-04-24 20:52
Airport Tbilisi International Airport (UGTB)
Time Latitude Longitude Altitude Speed Heading
2026-04-24 19:18 48.78984 44.35133 475 ft 0 kts 161°
2026-04-24 19:26 48.78968 44.35132 476 ft 8 kts 185°
2026-04-24 19:26 48.78877 44.35115 475 ft 18 kts 165°
2026-04-24 19:26 48.78718 44.35191 471 ft 30 kts 162°
2026-04-24 19:27 48.78670 44.35215 476 ft 0 kts 162°
2026-04-24 19:27 48.78660 44.35220 479 ft 6 kts 161°
2026-04-24 19:28 48.78563 44.35232 479 ft 11 kts 208°
2026-04-24 19:28 48.78543 44.35192 475 ft 0 kts 242°
2026-04-24 19:28 48.78533 44.35163 477 ft 20 kts 242°
2026-04-24 19:28 48.78347 44.34575 464 ft 106 kts 244°
2026-04-24 19:29 48.77427 44.31656 1101 ft 186 kts 246°
2026-04-24 19:29 48.76976 44.30233 1556 ft 192 kts 247°
2026-04-24 19:29 48.76443 44.28563 2057 ft 198 kts 248°
2026-04-24 19:30 48.75835 44.26660 2602 ft 202 kts 248°
2026-04-24 19:30 48.75229 44.24768 3326 ft 194 kts 249°
2026-04-24 19:30 48.74464 44.23140 4211 ft 192 kts 226°
2026-04-24 19:30 48.73153 44.22605 5030 ft 209 kts 184°
2026-04-24 19:31 48.71684 44.23129 5614 ft 223 kts 170°
2026-04-24 19:31 48.70206 44.23920 6238 ft 227 kts 168°
2026-04-24 19:31 48.68714 44.24728 6839 ft 228 kts 169°
2026-04-24 19:31 48.67212 44.25510 7435 ft 228 kts 170°
2026-04-24 19:32 48.65726 44.26259 8039 ft 228 kts 171°
2026-04-24 19:32 48.64212 44.27004 8611 ft 229 kts 171°
2026-04-24 19:32 48.62685 44.27745 9183 ft 230 kts 171°
2026-04-24 19:32 48.61155 44.28482 9739 ft 232 kts 171°
2026-04-24 19:33 48.59594 44.29228 10345 ft 238 kts 171°
2026-04-24 19:33 48.58023 44.29982 11304 ft 236 kts 171°
2026-04-24 19:33 48.56460 44.30732 12306 ft 235 kts 170°
2026-04-24 19:33 48.54890 44.31386 13251 ft 232 kts 179°
2026-04-24 19:34 48.53290 44.31595 14088 ft 231 kts 185°
2026-04-24 19:34 48.51676 44.31666 14869 ft 232 kts 186°
2026-04-24 19:34 48.50070 44.31717 15649 ft 235 kts 186°
2026-04-24 19:34 48.48428 44.31771 16415 ft 237 kts 186°
2026-04-24 19:35 48.46764 44.31831 17195 ft 241 kts 186°
2026-04-24 19:35 48.45078 44.31895 17962 ft 243 kts 187°
2026-04-24 19:35 48.43369 44.31964 18658 ft 245 kts 187°
2026-04-24 19:35 48.41657 44.32034 19382 ft 247 kts 187°
2026-04-24 19:36 48.39945 44.32105 20117 ft 245 kts 188°
2026-04-24 19:36 48.38241 44.32177 20867 ft 245 kts 189°
2026-04-24 19:36 48.36725 44.32238 21459 ft 248 kts 189°
2026-04-24 19:36 48.34991 44.32307 22102 ft 251 kts 189°
2026-04-24 19:37 48.33232 44.32378 22756 ft 254 kts 189°
2026-04-24 19:37 48.31455 44.32450 23392 ft 256 kts 189°
2026-04-24 19:37 48.29686 44.32522 23910 ft 260 kts 189°
2026-04-24 19:37 48.27862 44.32595 24399 ft 264 kts 189°
2026-04-24 19:38 48.26008 44.32670 24890 ft 268 kts 189°
2026-04-24 19:38 48.24131 44.32747 25362 ft 272 kts 189°
2026-04-24 19:38 48.22223 44.32825 25843 ft 275 kts 189°
2026-04-24 19:38 48.20949 44.32878 26155 ft 278 kts 189°
2026-04-24 19:39 48.19003 44.32958 26619 ft 281 kts 189°
2026-04-24 19:39 48.17250 44.33029 27005 ft 285 kts 189°
2026-04-24 19:39 48.14598 44.33137 27565 ft 290 kts 189°
2026-04-24 19:39 48.12571 44.33220 28008 ft 293 kts 188°
2026-04-24 19:40 48.11182 44.33278 28271 ft 295 kts 189°
2026-04-24 19:40 48.09131 44.33364 28800 ft 295 kts 189°
2026-04-24 19:40 48.07097 44.33449 29236 ft 298 kts 189°
2026-04-24 19:40 48.05013 44.33532 29623 ft 302 kts 189°
2026-04-24 19:41 48.02900 44.33616 29975 ft 305 kts 189°
2026-04-24 19:41 48.00765 44.33702 30269 ft 309 kts 189°
2026-04-24 19:41 47.98606 44.33790 30569 ft 312 kts 188°
2026-04-24 19:41 47.96422 44.33879 30861 ft 315 kts 188°
2026-04-24 19:42 47.94209 44.33987 31146 ft 319 kts 187°
2026-04-24 19:42 47.92057 44.33647 31385 ft 305 kts 209°
2026-04-24 19:42 47.90347 44.31954 31606 ft 294 kts 232°
2026-04-24 19:42 47.89170 44.29470 31843 ft 294 kts 242°
2026-04-24 19:43 47.88212 44.26754 32071 ft 298 kts 244°
2026-04-24 19:43 47.87267 44.24026 32326 ft 302 kts 242°
2026-04-24 19:43 47.86218 44.21290 32595 ft 305 kts 240°
2026-04-24 19:43 47.85064 44.18614 32846 ft 309 kts 237°
2026-04-24 19:44 47.83821 44.15979 33089 ft 312 kts 236°
2026-04-24 19:44 47.82514 44.13365 33332 ft 316 kts 235°
2026-04-24 19:44 47.81188 44.10789 33569 ft 319 kts 234°
2026-04-24 19:44 47.79822 44.08166 33797 ft 322 kts 234°
2026-04-24 19:45 47.78443 44.05520 34005 ft 325 kts 234°
2026-04-24 19:45 47.77056 44.02855 34207 ft 327 kts 234°
2026-04-24 19:45 47.75663 44.00169 34411 ft 329 kts 234°
2026-04-24 19:45 47.74258 43.97452 34564 ft 333 kts 234°
2026-04-24 19:46 47.72844 43.94713 34756 ft 335 kts 235°
2026-04-24 19:46 47.71422 43.91959 34955 ft 337 kts 234°
2026-04-24 19:46 47.69990 43.89188 35160 ft 339 kts 234°
2026-04-24 19:46 47.68570 43.86444 35357 ft 341 kts 234°
2026-04-24 19:47 47.67120 43.83643 35547 ft 343 kts 234°
2026-04-24 19:47 47.65662 43.80832 35742 ft 344 kts 234°
2026-04-24 19:47 47.64193 43.78003 35915 ft 346 kts 234°
2026-04-24 19:47 47.62714 43.75155 36103 ft 348 kts 234°
2026-04-24 19:48 47.61303 43.72444 36268 ft 350 kts 234°
2026-04-24 19:48 47.59812 43.69580 36420 ft 352 kts 234°
2026-04-24 19:48 47.56814 43.63833 36739 ft 356 kts 234°
2026-04-24 19:49 47.53765 43.58002 37072 ft 360 kts 233°
2026-04-24 19:49 47.49602 43.53812 37317 ft 378 kts 202°
2026-04-24 19:50 47.41854 43.50927 37797 ft 385 kts 199°
2026-04-24 19:50 47.39243 43.50002 37899 ft 387 kts 199°
2026-04-24 19:51 47.33968 43.48172 38147 ft 390 kts 199°
2026-04-24 19:51 47.31320 43.47270 38158 ft 390 kts 199°
2026-04-24 19:52 47.23407 43.44586 38161 ft 390 kts 199°
2026-04-24 19:52 47.18119 43.42799 38158 ft 390 kts 199°
2026-04-24 19:53 47.12826 43.41016 38161 ft 390 kts 199°
2026-04-24 19:54 47.04890 43.38352 38158 ft 390 kts 199°
2026-04-24 19:54 46.99614 43.36590 38165 ft 394 kts 199°
2026-04-24 19:55 46.95076 43.35090 38165 ft 403 kts 199°
2026-04-24 19:55 46.88613 43.32930 38163 ft 416 kts 199°
2026-04-24 19:56 46.82905 43.30994 38166 ft 426 kts 199°
2026-04-24 19:56 46.77048 43.28991 38169 ft 436 kts 199°
2026-04-24 19:57 46.71776 43.27178 38168 ft 444 kts 199°
2026-04-24 19:57 46.65789 43.25109 38165 ft 445 kts 199°
2026-04-24 19:58 46.59738 43.23098 38163 ft 448 kts 193°
2026-04-24 19:58 46.56583 43.23121 38172 ft 460 kts 176°
2026-04-24 19:58 46.53468 43.24409 38182 ft 471 kts 164°
2026-04-24 19:59 46.47346 43.27774 38433 ft 464 kts 174°
2026-04-24 19:59 46.44179 43.28456 38637 ft 456 kts 183°
2026-04-24 19:59 46.41038 43.28377 38814 ft 447 kts 192°
2026-04-24 19:59 46.38011 43.27521 38966 ft 439 kts 202°
2026-04-24 20:00 46.35233 43.25939 39128 ft 432 kts 210°
2026-04-24 20:00 46.32490 43.24137 39401 ft 429 kts 207°
2026-04-24 20:00 46.29654 43.22865 39313 ft 429 kts 194°
2026-04-24 20:00 46.26637 43.22758 38741 ft 444 kts 178°
2026-04-24 20:01 46.23604 43.24009 38321 ft 464 kts 162°
2026-04-24 20:01 46.20662 43.26073 38190 ft 472 kts 160°
2026-04-24 20:01 46.17668 43.28019 38180 ft 471 kts 165°
2026-04-24 20:02 46.12487 43.30232 38182 ft 463 kts 175°
2026-04-24 20:02 46.05066 43.31614 38185 ft 458 kts 181°
2026-04-24 20:03 45.98748 43.32208 38192 ft 457 kts 182°
2026-04-24 20:03 45.92395 43.32778 38190 ft 458 kts 182°
2026-04-24 20:04 45.86030 43.33413 38190 ft 458 kts 182°
2026-04-24 20:04 45.79662 43.34084 38187 ft 458 kts 182°
2026-04-24 20:05 45.73307 43.34761 38194 ft 457 kts 182°
2026-04-24 20:05 45.66956 43.35433 38203 ft 457 kts 182°
2026-04-24 20:06 45.60652 43.36097 38206 ft 457 kts 182°
2026-04-24 20:06 45.54293 43.36764 38203 ft 457 kts 182°
2026-04-24 20:07 45.49020 43.37317 38216 ft 456 kts 182°
2026-04-24 20:07 45.41629 43.38089 38218 ft 456 kts 182°
2026-04-24 20:08 45.35306 43.38748 38224 ft 456 kts 182°
2026-04-24 20:08 45.28985 43.39405 38201 ft 455 kts 182°
2026-04-24 20:09 45.22669 43.40061 38228 ft 454 kts 182°
2026-04-24 20:09 45.16366 43.40714 38233 ft 454 kts 182°
2026-04-24 20:10 45.10062 43.41365 38232 ft 454 kts 182°
2026-04-24 20:10 45.03764 43.42016 38235 ft 454 kts 182°
2026-04-24 20:11 44.97474 43.42663 38229 ft 453 kts 182°
2026-04-24 20:11 44.91230 43.43478 38237 ft 458 kts 175°
2026-04-24 20:12 44.85180 43.46704 38321 ft 475 kts 156°
2026-04-24 20:12 44.79190 43.50220 38213 ft 458 kts 176°
2026-04-24 20:13 44.74182 43.50613 38241 ft 443 kts 191°
2026-04-24 20:13 44.68378 43.48497 38223 ft 430 kts 207°
2026-04-24 20:14 44.62944 43.44989 38243 ft 430 kts 210°
2026-04-24 20:14 44.57522 43.41377 38244 ft 431 kts 209°
2026-04-24 20:15 44.52037 43.37933 38245 ft 432 kts 208°
2026-04-24 20:15 44.46480 43.34705 38241 ft 438 kts 197°
2026-04-24 20:15 44.43402 43.34407 38205 ft 450 kts 180°
2026-04-24 20:16 44.40352 43.35377 38242 ft 463 kts 165°
2026-04-24 20:16 44.37495 43.37582 38240 ft 476 kts 150°
2026-04-24 20:16 44.34734 43.40057 38303 ft 464 kts 164°
2026-04-24 20:16 44.31687 43.41152 38447 ft 449 kts 177°
2026-04-24 20:17 44.28603 43.41359 38442 ft 437 kts 193°
2026-04-24 20:17 44.22595 43.40048 38328 ft 437 kts 195°
2026-04-24 20:17 44.19598 43.39309 38233 ft 441 kts 191°
2026-04-24 20:18 44.13568 43.38347 38235 ft 435 kts 198°
2026-04-24 20:18 44.07697 43.36378 38238 ft 433 kts 200°
2026-04-24 20:19 44.01857 43.34338 38231 ft 433 kts 200°
2026-04-24 20:19 43.96009 43.32300 38231 ft 434 kts 200°
2026-04-24 20:20 43.89998 43.31019 38228 ft 447 kts 184°
2026-04-24 20:20 43.83761 43.31886 38225 ft 451 kts 180°
2026-04-24 20:21 43.77540 43.32443 38220 ft 446 kts 185°
2026-04-24 20:21 43.71623 43.32592 38214 ft 446 kts 185°
2026-04-24 20:22 43.65453 43.32733 38218 ft 446 kts 185°
2026-04-24 20:22 43.59245 43.32884 38207 ft 445 kts 185°
2026-04-24 20:23 43.53061 43.33077 38209 ft 443 kts 185°
2026-04-24 20:23 43.47124 43.33274 38211 ft 442 kts 185°
2026-04-24 20:24 43.41035 43.33493 38201 ft 439 kts 185°
2026-04-24 20:24 43.34923 43.33720 38201 ft 439 kts 185°
2026-04-24 20:25 43.29850 43.33914 38197 ft 439 kts 185°
2026-04-24 20:25 43.23748 43.34139 38181 ft 437 kts 186°
2026-04-24 20:26 43.17685 43.33756 38230 ft 435 kts 194°
2026-04-24 20:26 43.11743 43.32281 38248 ft 430 kts 200°
2026-04-24 20:27 43.06037 43.29951 38275 ft 430 kts 199°
2026-04-24 20:27 43.00051 43.28791 38267 ft 438 kts 191°
2026-04-24 20:28 42.93934 43.28344 38296 ft 445 kts 189°
2026-04-24 20:28 42.87751 43.27876 38329 ft 444 kts 191°
2026-04-24 20:29 42.81588 43.27272 38361 ft 444 kts 189°
2026-04-24 20:29 42.78475 43.27529 38316 ft 457 kts 174°
2026-04-24 20:29 42.75442 43.29008 38354 ft 472 kts 158°
2026-04-24 20:30 42.72732 43.31643 38351 ft 487 kts 142°
2026-04-24 20:30 42.70406 43.35040 38343 ft 493 kts 136°
2026-04-24 20:30 42.65706 43.41817 38348 ft 486 kts 147°
2026-04-24 20:31 42.60208 43.46990 38343 ft 480 kts 154°
2026-04-24 20:31 42.54562 43.51792 38448 ft 477 kts 157°
2026-04-24 20:32 42.48814 43.56160 38338 ft 475 kts 158°
2026-04-24 20:32 42.46028 43.58624 37879 ft 481 kts 148°
2026-04-24 20:32 42.43564 43.61765 37162 ft 492 kts 140°
2026-04-24 20:33 42.41296 43.65277 36418 ft 497 kts 137°
2026-04-24 20:33 42.39070 43.68889 35683 ft 501 kts 137°
2026-04-24 20:33 42.36858 43.72551 34944 ft 504 kts 137°
2026-04-24 20:33 42.34660 43.76248 34231 ft 506 kts 137°
2026-04-24 20:34 42.32468 43.79989 33342 ft 505 kts 137°
2026-04-24 20:34 42.30303 43.83732 32124 ft 506 kts 137°
2026-04-24 20:34 42.28173 43.87440 30938 ft 506 kts 137°
2026-04-24 20:34 42.26015 43.91188 29827 ft 503 kts 137°
2026-04-24 20:35 42.23880 43.94897 28850 ft 494 kts 137°
2026-04-24 20:35 42.21796 43.98526 27920 ft 485 kts 137°
2026-04-24 20:35 42.19747 44.02098 27001 ft 476 kts 137°
2026-04-24 20:35 42.17745 44.05615 26056 ft 469 kts 137°
2026-04-24 20:36 42.15789 44.09086 25202 ft 461 kts 137°
2026-04-24 20:36 42.13864 44.12495 24387 ft 452 kts 137°
2026-04-24 20:36 42.11968 44.15829 23584 ft 443 kts 137°
2026-04-24 20:36 42.10098 44.19097 22582 ft 436 kts 137°
2026-04-24 20:37 42.08269 44.22272 21544 ft 432 kts 137°
2026-04-24 20:37 42.06429 44.25446 20518 ft 427 kts 137°
2026-04-24 20:37 42.04591 44.28552 19610 ft 420 kts 137°
2026-04-24 20:37 42.02765 44.31571 18716 ft 413 kts 137°
2026-04-24 20:38 42.00945 44.34537 17730 ft 407 kts 137°
2026-04-24 20:38 41.99136 44.37444 16652 ft 403 kts 137°
2026-04-24 20:38 41.97333 44.40295 15686 ft 397 kts 137°
2026-04-24 20:38 41.95536 44.43086 14722 ft 392 kts 137°
2026-04-24 20:39 41.93749 44.45834 13960 ft 389 kts 137°
2026-04-24 20:39 41.91910 44.48482 13428 ft 385 kts 141°
2026-04-24 20:39 41.89911 44.50815 13021 ft 378 kts 146°
2026-04-24 20:39 41.87861 44.53013 12598 ft 376 kts 147°
2026-04-24 20:40 41.85812 44.55181 12179 ft 375 kts 147°
2026-04-24 20:40 41.83784 44.57308 11771 ft 374 kts 147°
2026-04-24 20:40 41.81729 44.59441 11371 ft 373 kts 147°
2026-04-24 20:40 41.79705 44.61539 10965 ft 362 kts 147°
2026-04-24 20:41 41.77735 44.63587 10568 ft 354 kts 147°
2026-04-24 20:41 41.75806 44.65569 10171 ft 345 kts 146°
2026-04-24 20:41 41.73899 44.67456 9758 ft 336 kts 147°
2026-04-24 20:41 41.72034 44.69279 9327 ft 328 kts 147°
2026-04-24 20:42 41.70204 44.71061 8904 ft 321 kts 147°
2026-04-24 20:42 41.68417 44.72795 8484 ft 315 kts 147°
2026-04-24 20:42 41.66655 44.74503 8067 ft 310 kts 147°
2026-04-24 20:42 41.64919 44.76176 7661 ft 305 kts 147°
2026-04-24 20:43 41.63203 44.77823 7257 ft 302 kts 147°
2026-04-24 20:43 41.61502 44.79444 6859 ft 299 kts 147°
2026-04-24 20:43 41.59809 44.81050 6469 ft 298 kts 147°
2026-04-24 20:43 41.58119 44.82645 6091 ft 297 kts 147°
2026-04-24 20:44 41.56431 44.84227 5972 ft 295 kts 147°
2026-04-24 20:44 41.54754 44.85792 5965 ft 294 kts 147°
2026-04-24 20:44 41.53101 44.87333 5969 ft 293 kts 147°
2026-04-24 20:44 41.51556 44.89073 5964 ft 289 kts 128°
2026-04-24 20:45 41.50608 44.91408 5905 ft 285 kts 110°
2026-04-24 20:45 41.49950 44.93892 5537 ft 283 kts 107°
2026-04-24 20:45 41.49339 44.96394 5382 ft 285 kts 107°
2026-04-24 20:45 41.48724 44.98922 5368 ft 287 kts 107°
2026-04-24 20:46 41.48103 45.01460 5381 ft 288 kts 107°
2026-04-24 20:46 41.47470 45.04004 5379 ft 290 kts 107°
2026-04-24 20:46 41.46834 45.06559 5379 ft 291 kts 107°
2026-04-24 20:46 41.46196 45.09118 5376 ft 291 kts 107°
2026-04-24 20:47 41.45731 45.11723 5375 ft 288 kts 89°
2026-04-24 20:47 41.46081 45.14289 5376 ft 279 kts 61°
2026-04-24 20:47 41.47201 45.16286 5380 ft 269 kts 36°
2026-04-24 20:47 41.48720 45.17745 5381 ft 266 kts 27°
2026-04-24 20:48 41.50391 45.18707 5379 ft 258 kts
2026-04-24 20:48 41.52128 45.18542 5379 ft 249 kts 337°
2026-04-24 20:48 41.53574 45.17342 5382 ft 245 kts 314°
2026-04-24 20:48 41.54603 45.15564 5379 ft 246 kts 302°
2026-04-24 20:49 41.55437 45.13562 5377 ft 248 kts 298°
2026-04-24 20:49 41.56240 45.11519 5320 ft 249 kts 298°
2026-04-24 20:49 41.57046 45.09463 4870 ft 250 kts 298°
2026-04-24 20:49 41.57991 45.07498 4341 ft 253 kts 304°
2026-04-24 20:50 41.58930 45.05522 4030 ft 252 kts 305°
2026-04-24 20:50 41.60046 45.03704 3684 ft 253 kts 312°
2026-04-24 20:50 41.61255 45.01975 3065 ft 257 kts 315°
2026-04-24 20:50 41.62626 45.00413 2513 ft 258 kts 317°
2026-04-24 20:51 41.63874 44.98816 2264 ft 239 kts 314°
2026-04-24 20:51 41.65087 44.97403 1875 ft 222 kts 318°
2026-04-24 20:51 41.66169 44.96066 1566 ft 202 kts 313°
2026-04-24 20:51 41.67103 44.94869 1568 ft 159 kts 314°
2026-04-24 20:52 41.67649 44.94179 1583 ft 61 kts 318°
2026-04-24 20:52 41.67786 44.94080 1585 ft 0 kts 19°
2026-04-24 20:52 41.67792 44.94078 1585 ft 3 kts 346°
2026-04-24 20:52 41.67798 44.94074 1585 ft 0 kts 328°